TimeEDT,TemperatureF,Dew PointF,Humidity,Sea Level PressureIn,VisibilityMPH,Wind Direction,Wind SpeedMPH,Gust SpeedMPH,PrecipitationIn,Events,Conditions,WindDirDegrees,DateUTC
12:15 AM,64.4,64.4,100,29.93,10.0,SSE,6.9,-,N/A,,Scattered Clouds,160,2013-04-05 04:15:00
12:35 AM,64.4,64.4,100,29.92,10.0,SSE,8.1,-,N/A,,Mostly Cloudy,150,2013-04-05 04:35:00
12:55 AM,64.4,64.4,100,29.91,10.0,SSE,6.9,-,N/A,,Light Drizzle,160,2013-04-05 04:55:00
1:15 AM,64.4,64.4,100,29.93,10.0,SSW,3.5,-,N/A,,Clear,200,2013-04-05 05:15:00
1:35 AM,64.4,64.4,100,29.94,10.0,South,4.6,-,N/A,,Scattered Clouds,180,2013-04-05 05:35:00
2:15 AM,64.4,64.4,100,29.91,10.0,South,4.6,-,N/A,,Clear,170,2013-04-05 06:15:00
2:35 AM,62.6,62.6,100,29.90,10.0,SSE,4.6,-,N/A,,Clear,160,2013-04-05 06:35:00
2:55 AM,62.6,62.6,100,29.89,10.0,SSE,3.5,-,N/A,,Clear,160,2013-04-05 06:55:00
3:15 AM,62.6,62.6,100,29.90,10.0,Calm,Calm,-,N/A,,Clear,0,2013-04-05 07:15:00
3:35 AM,62.6,62.6,100,29.90,10.0,South,3.5,-,N/A,,Scattered Clouds,190,2013-04-05 07:35:00
3:55 AM,62.6,62.6,100,29.89,10.0,South,3.5,-,N/A,,Scattered Clouds,170,2013-04-05 07:55:00
4:15 AM,62.6,62.6,100,29.88,10.0,Calm,Calm,-,N/A,,Scattered Clouds,0,2013-04-05 08:15:00
4:35 AM,62.6,62.6,100,29.87,10.0,Calm,Calm,-,N/A,,Clear,0,2013-04-05 08:35:00
4:55 AM,62.6,62.6,100,29.86,10.0,WSW,3.5,-,N/A,,Clear,250,2013-04-05 08:55:00
5:15 AM,62.6,62.6,100,29.86,10.0,West,3.5,-,N/A,,Clear,260,2013-04-05 09:15:00
5:35 AM,60.8,60.8,100,29.84,7.0,South,3.5,-,N/A,,Clear,180,2013-04-05 09:35:00
5:55 AM,60.8,60.8,100,29.85,7.0,South,3.5,-,0.01,,Clear,190,2013-04-05 09:55:00
6:15 AM,60.8,60.8,100,29.86,5.0,Calm,Calm,-,N/A,,Scattered Clouds,0,2013-04-05 10:15:00
6:35 AM,60.8,60.8,100,29.87,2.0,Calm,Calm,-,N/A,,Overcast,0,2013-04-05 10:35:00
6:55 AM,60.8,60.8,100,29.88,5.0,Calm,Calm,-,N/A,,Mostly Cloudy,0,2013-04-05 10:55:00
7:15 AM,60.8,60.8,100,29.89,5.0,Calm,Calm,-,N/A,,Overcast,0,2013-04-05 11:15:00
7:35 AM,60.8,60.8,100,29.89,5.0,Calm,Calm,-,N/A,,Overcast,0,2013-04-05 11:35:00
7:55 AM,60.8,60.8,100,29.89,5.0,SSW,3.5,-,N/A,,Overcast,200,2013-04-05 11:55:00
8:15 AM,60.8,60.8,100,29.90,5.0,SSW,3.5,-,N/A,,Overcast,210,2013-04-05 12:15:00
8:35 AM,62.6,62.6,100,29.91,5.0,SW,4.6,-,N/A,,Mostly Cloudy,220,2013-04-05 12:35:00
8:55 AM,62.6,62.6,100,29.92,7.0,SW,6.9,-,N/A,Rain,Rain,220,2013-04-05 12:55:00
9:15 AM,62.6,62.6,100,29.90,5.0,SSW,5.8,-,N/A,Rain,Light Rain,210,2013-04-05 13:15:00
9:35 AM,62.6,62.6,100,29.91,7.0,WSW,6.9,-,N/A,Rain,Light Rain,240,2013-04-05 13:35:00
9:55 AM,64.4,64.4,100,29.92,10.0,SW,8.1,-,N/A,,Mostly Cloudy,230,2013-04-05 13:55:00
10:15 AM,68.0,68.0,100,29.92,10.0,WSW,12.7,-,N/A,,Overcast,250,2013-04-05 14:15:00
10:35 AM,68.0,68.0,100,29.92,10.0,West,9.2,-,N/A,,Overcast,270,2013-04-05 14:35:00
10:55 AM,68.0,68.0,100,29.92,10.0,WNW,11.5,-,N/A,,Overcast,290,2013-04-05 14:55:00
11:15 AM,68.0,68.0,100,29.92,10.0,WNW,9.2,-,N/A,,Overcast,300,2013-04-05 15:15:00
11:35 AM,68.0,66.2,94,29.93,10.0,WNW,16.1,-,N/A,,Overcast,300,2013-04-05 15:35:00
11:55 AM,69.8,64.4,83,29.93,10.0,WNW,13.8,-,N/A,,Overcast,290,2013-04-05 15:55:00
12:15 PM,69.8,62.6,78,29.92,10.0,WNW,15.0,20.7,N/A,,Overcast,290,2013-04-05 16:15:00
12:35 PM,71.6,59.0,64,29.92,10.0,WNW,12.7,20.7,N/A,,Overcast,300,2013-04-05 16:35:00
12:55 PM,69.8,57.2,64,29.92,10.0,NNW,12.7,20.7,N/A,,Overcast,330,2013-04-05 16:55:00
1:15 PM,71.6,55.4,57,29.91,10.0,NW,11.5,20.7,N/A,,Overcast,320,2013-04-05 17:15:00
1:35 PM,71.6,55.4,57,29.91,10.0,WNW,15.0,20.7,N/A,,Overcast,300,2013-04-05 17:35:00
1:55 PM,69.8,55.4,60,29.90,10.0,WNW,11.5,-,N/A,,Overcast,300,2013-04-05 17:55:00
2:15 PM,69.8,55.4,60,29.90,10.0,WNW,15.0,-,N/A,,Overcast,300,2013-04-05 18:15:00
2:35 PM,71.6,53.6,53,29.90,10.0,NW,12.7,-,N/A,,Overcast,320,2013-04-05 18:35:00
2:55 PM,71.6,53.6,53,29.89,10.0,WNW,12.7,20.7,N/A,,Overcast,300,2013-04-05 18:55:00
3:15 PM,73.4,51.8,47,29.89,10.0,NW,15.0,20.7,N/A,,Mostly Cloudy,310,2013-04-05 19:15:00
3:35 PM,73.4,51.8,47,29.89,10.0,West,12.7,19.6,N/A,,Scattered Clouds,270,2013-04-05 19:35:00
3:55 PM,75.2,50.0,41,29.88,10.0,WNW,12.7,21.9,N/A,,Scattered Clouds,300,2013-04-05 19:55:00
4:15 PM,73.4,50.0,44,29.87,10.0,West,12.7,21.9,N/A,,Mostly Cloudy,280,2013-04-05 20:15:00
4:35 PM,73.4,51.8,47,29.87,10.0,WNW,12.7,20.7,N/A,,Scattered Clouds,300,2013-04-05 20:35:00
4:55 PM,71.6,51.8,50,29.87,10.0,WNW,11.5,19.6,N/A,,Scattered Clouds,300,2013-04-05 20:55:00
5:15 PM,73.4,51.8,47,29.86,10.0,WNW,13.8,20.7,N/A,,Scattered Clouds,300,2013-04-05 21:15:00
5:35 PM,71.6,51.8,50,29.86,10.0,WNW,16.1,19.6,N/A,,Mostly Cloudy,300,2013-04-05 21:35:00
5:55 PM,69.8,51.8,53,29.87,10.0,NW,13.8,17.3,N/A,,Mostly Cloudy,310,2013-04-05 21:55:00
6:15 PM,69.8,50.0,49,29.88,10.0,WNW,13.8,18.4,N/A,,Scattered Clouds,290,2013-04-05 22:15:00
6:35 PM,69.8,51.8,53,29.89,10.0,WNW,12.7,-,N/A,,Clear,290,2013-04-05 22:35:00
6:55 PM,68.0,51.8,56,29.89,10.0,WNW,12.7,-,N/A,,Clear,290,2013-04-05 22:55:00
7:15 PM,64.4,53.6,68,29.89,10.0,WNW,13.8,-,N/A,,Clear,290,2013-04-05 23:15:00
7:35 PM,64.4,53.6,68,29.90,10.0,WNW,9.2,-,N/A,,Clear,300,2013-04-05 23:35:00
7:55 PM,62.6,55.4,77,29.91,10.0,WNW,9.2,-,0.01,,Clear,290,2013-04-05 23:55:00
8:15 PM,62.6,55.4,77,29.92,10.0,NW,11.5,-,N/A,,Scattered Clouds,310,2013-04-06 00:15:00
8:35 PM,62.6,57.2,82,29.93,10.0,WNW,8.1,-,N/A,,Mostly Cloudy,300,2013-04-06 00:35:00
8:55 PM,60.8,59.0,94,29.95,10.0,NW,9.2,-,N/A,,Mostly Cloudy,310,2013-04-06 00:55:00
9:15 PM,60.8,59.0,94,29.96,10.0,NNW,8.1,-,N/A,,Mostly Cloudy,330,2013-04-06 01:15:00
9:35 PM,62.6,57.2,82,29.97,10.0,North,9.2,17.3,N/A,,Overcast,350,2013-04-06 01:35:00
9:55 PM,60.8,55.4,82,29.98,10.0,NNW,9.2,16.1,N/A,,Overcast,340,2013-04-06 01:55:00
10:15 PM,60.8,55.4,82,29.99,10.0,North,10.4,-,N/A,,Overcast,360,2013-04-06 02:15:00
10:35 PM,60.8,55.4,82,30.00,10.0,North,8.1,-,N/A,,Overcast,350,2013-04-06 02:35:00
10:55 PM,60.8,55.4,82,30.01,10.0,North,11.5,-,N/A,,Overcast,360,2013-04-06 02:55:00
11:15 PM,60.8,53.6,77,30.02,10.0,North,11.5,17.3,N/A,,Overcast,360,2013-04-06 03:15:00
11:35 PM,60.8,53.6,77,30.02,10.0,North,10.4,16.1,N/A,,Overcast,360,2013-04-06 03:35:00
11:55 PM,59.0,53.6,82,30.03,10.0,NNE,12.7,19.6,N/A,,Overcast,20,2013-04-06 03:55:00